Oceanside, CA

1:41 AM PDT on March 27, 2017 (GMT -0700)
Oceanside Municipal

Weather History for KOKB - December, 2013

Change the Weather History Date:

Saturday, December 7, 2013

  Actual Average Record
Temperature  
Mean Temperature 48 °F 53 °F  
Max Temperature 60 °F 66 °F 86 °F (2001)
Min Temperature 36 °F 40 °F 30 °F (2006)
Degree Days  
Heating Degree Days 17 12  
Month to date heating degree days 85 81  
Since 1 July heating degree days 384 431  
Cooling Degree Days 0 0  
Month to date cooling degree days 0 0  
Year to date cooling degree days 535 419  
Moisture  
Dew Point 42 °F    
Average Humidity 82    
Maximum Humidity 92    
Minimum Humidity 71    
Precipitation  
Precipitation 0.05 in 0.05 in 0.97 in (2009)
Month to date precipitation 0.05 0.26  
Year to date precipitation 3.61 11.77  
Since 1 July precipitation 1.29  
Snow  
Snow 0.00 in - - ()
Month to date snowfall 0.0  
Year to date snowfall 0.0  
Snow Depth 0.00 in    
Sea Level Pressure  
Sea Level Pressure 30.07 in    
Wind  
Wind Speed 3 mph (WSW)    
Max Wind Speed 21 mph    
Max Gust Speed 28 mph    
Visibility 9 miles    
Events Rain    
T = Trace of Precipitation, MM = Missing Value Source: NWS Daily Summary

Daily Weather History Graph

Daily Weather History Graph

Search for Another Location

Airport or City:

Trip Planner

Search our weather history database for the weather conditions in past years. The results will help you decide how hot, cold, wet, or windy it might be!

Date:

Astronomy

Dec. 07, 2013 Rise Set
Actual Time 6:40 AM PST 4:42 PM PST
Civil Twilight 6:12 AM PST 5:09 PM PST
Nautical Twilight 5:41 AM PST 5:40 PM PST
Astronomical Twilight 5:11 AM PST 6:10 PM PST
Moon 10:38 AM PST (12/7) 10:16 PM PST (12/7)
Length of Visible Light 10h 56m
Length of Day
10h 02m
Waxing Crescent, 30% of the Moon is Illuminated
Dec 7
Waxing Crescent
Dec 9
First Quarter
Dec 17
Full
Dec 25
Last Quarter
Jan 1
New

Hourly Weather History & Observations

Time (PST) Temp. Dew Point Humidity Pressure Visibility Wind Dir Wind Speed Gust Speed Precip Events Conditions
12:52 AM 39.0 °F 35.1 °F 86% 30.12 in 10.0 mi Calm Calm - N/A   Scattered Clouds
1:52 AM 37.9 °F 34.0 °F 86% 30.11 in 10.0 mi Calm Calm - N/A   Clear
2:52 AM 37.0 °F 35.1 °F 93% 30.10 in 9.0 mi Calm Calm - N/A   Scattered Clouds
3:52 AM 37.0 °F 34.0 °F 89% 30.09 in 10.0 mi Calm Calm - N/A   Scattered Clouds
4:52 AM 37.9 °F 34.0 °F 86% 30.08 in 10.0 mi Calm Calm - N/A   Scattered Clouds
5:52 AM 37.0 °F 34.0 °F 89% 30.10 in 10.0 mi Calm Calm - N/A   Clear
6:52 AM 37.0 °F 34.0 °F 89% 30.11 in 9.0 mi Calm Calm - N/A   Scattered Clouds
7:52 AM 42.1 °F 37.9 °F 85% 30.11 in 9.0 mi Calm Calm - N/A   Clear
8:52 AM 48.9 °F 39.9 °F 71% 30.12 in 10.0 mi Calm Calm - N/A   Overcast
9:52 AM 54.0 °F 42.1 °F 64% 30.12 in 8.0 mi Calm Calm - 0.00 in Rain Light Rain
10:52 AM 57.0 °F 42.1 °F 57% 30.10 in 10.0 mi SSW 10.4 mph - 0.00 in   Overcast
11:30 AM 57.2 °F 46.4 °F 67% 30.08 in 10.0 mi South 11.5 mph 16.1 mph 0.00 in   Overcast
11:49 AM 55.4 °F 48.2 °F 77% 30.06 in 7.0 mi South 9.2 mph - 0.00 in Rain Light Rain
11:52 AM 55.9 °F 46.9 °F 72% 30.06 in 8.0 mi South 12.7 mph - 0.00 in Rain Light Rain
12:29 PM 55.4 °F 50.0 °F 82% 30.04 in 4.0 mi SW 8.1 mph - 0.01 in Rain Light Rain
12:52 PM 55.9 °F 51.1 °F 84% 30.04 in 2.0 mi WSW 20.7 mph 27.6 mph 0.05 in Rain Light Rain
12:57 PM 55.4 °F 51.8 °F 88% 30.04 in 5.0 mi WSW 12.7 mph 26.5 mph 0.00 in Rain Light Rain
1:52 PM 57.9 °F 52.0 °F 81% 30.02 in 10.0 mi WSW 11.5 mph 24.2 mph 0.00 in   Overcast
2:03 PM 59.0 °F 51.8 °F 77% 30.02 in 10.0 mi WSW 11.5 mph 21.9 mph N/A   Overcast
2:30 PM 59.0 °F 48.2 °F 67% 30.02 in 10.0 mi West 9.2 mph 19.6 mph N/A   Mostly Cloudy
2:52 PM 59.0 °F 50.0 °F 72% 30.02 in 10.0 mi West 12.7 mph 21.9 mph N/A   Overcast
3:52 PM 57.9 °F 48.0 °F 70% 30.03 in 10.0 mi West 9.2 mph - 0.00 in   Overcast
4:52 PM 55.9 °F 42.1 °F 60% 30.04 in 10.0 mi WNW 5.8 mph - N/A   Partly Cloudy
5:52 PM 55.9 °F 42.1 °F 60% 30.04 in 10.0 mi West 6.9 mph - N/A   Mostly Cloudy
6:52 PM 55.0 °F 37.9 °F 53% 30.07 in 10.0 mi West 8.1 mph 18.4 mph N/A   Partly Cloudy
7:52 PM 54.0 °F 36.0 °F 51% 30.09 in 10.0 mi West 5.8 mph - N/A   Clear
8:52 PM 53.1 °F 37.0 °F 55% 30.09 in 10.0 mi SW 3.5 mph - N/A   Scattered Clouds
9:52 PM 54.0 °F 39.9 °F 59% 30.09 in 10.0 mi WSW 5.8 mph - N/A   Mostly Cloudy
10:52 PM 54.0 °F 41.0 °F 62% 30.10 in 10.0 mi SW 5.8 mph - N/A   Mostly Cloudy
11:52 PM 53.1 °F 37.9 °F 57% 30.11 in 10.0 mi West 4.6 mph - N/A   Clear